Clarksburg, WV

3:39 PM EDT on October 18, 2019 (GMT -0400)
Benedum

Weather History for KCKB - August, 2019

Change the Weather History Date:

Sunday, August 11, 2019

  Actual Average Record
Temperature  
Mean Temperature 68 °F -  
Max Temperature 82 °F 82 °F 96 °F (1955)
Min Temperature 54 °F 60 °F 45 °F (1930)
Cooling Degree Days 3    
Growing Degree Days 18 (Base 50)    
Moisture  
Dew Point 54 °F    
Average Humidity 73    
Maximum Humidity 93    
Minimum Humidity 36    
Precipitation  
Precipitation 0.00 in - - ()
Sea Level Pressure  
Sea Level Pressure 30.06 in    
Wind  
Wind Speed 1 mph ()    
Max Wind Speed 9 mph    
Max Gust Speed -    
Visibility 6.6 miles    
Events Fog    
Averages and records for this station are not official NWS values.
T = Trace of Precipitation, MM = Missing Value Source: Averaged Metar Reports

Daily Weather History Graph

Daily Weather History Graph

Search for Another Location

Airport or City:

Astronomy

Aug. 11, 2019 Rise Set
Actual Time 6:29 AM EDT 8:21 PM EDT
Civil Twilight 6:00 AM EDT 8:50 PM EDT
Nautical Twilight 5:25 AM EDT 9:25 PM EDT
Astronomical Twilight 4:47 AM EDT 10:03 PM EDT
Moon 5:58 PM EDT (8/11) 2:49 AM EDT (8/11)
Length of Visible Light 14h 49m
Length of Day
13h 51m
Waxing Gibbous, 87% of the Moon is Illuminated
Aug 11
Waxing Gibbous
Aug 15
Full
Aug 23
Last Quarter
Aug 30
New
Sep 5
First Quarter

Hourly Weather History & Observations

Time (EDT) Temp. Heat Index Dew Point Humidity Pressure Visibility Wind Dir Wind Speed Gust Speed Precip Events Conditions
12:53 AM 62.1 °F - 59.0 °F 90% 30.04 in 8.0 mi Calm Calm - N/A   Clear
1:53 AM 62.1 °F - 57.0 °F 84% 30.04 in 10.0 mi Calm Calm - N/A   Clear
2:46 AM 59.0 °F - 55.0 °F 87% 30.07 in 1.8 mi Calm Calm - N/A   Clear
2:53 AM 59.0 °F - 55.9 °F 90% 30.03 in 4.0 mi Calm Calm - N/A   Clear
3:53 AM 57.9 °F - 55.0 °F 90% 30.03 in 7.0 mi Calm Calm - N/A   Clear
4:53 AM 57.9 °F - 55.0 °F 90% 30.04 in 6.0 mi Calm Calm - N/A   Clear
5:25 AM 55.9 °F - 52.0 °F 87% 30.08 in 1.8 mi Calm Calm - N/A   Clear
5:34 AM 55.9 °F - 52.0 °F 87% 30.08 in 3.0 mi Calm Calm - N/A   Clear
5:53 AM 57.0 °F - 53.1 °F 87% 30.05 in 9.0 mi Calm Calm - N/A   Clear
6:00 AM 55.9 °F - 53.1 °F 90% 30.09 in 1.8 mi Calm Calm - N/A   Clear
6:11 AM 55.0 °F - 53.1 °F 93% 30.09 in 2.5 mi Calm Calm - N/A   Partly Cloudy
6:17 AM 55.0 °F - 53.1 °F 93% 30.10 in 1.0 mi Calm Calm - N/A   Mist
6:24 AM 54.0 °F - 52.0 °F 93% 30.10 in 0.2 mi Calm Calm - N/A Fog Fog
6:43 AM 55.9 °F - 52.0 °F 87% 30.10 in 0.2 mi Calm Calm - N/A Fog Fog
6:53 AM 54.0 °F - 51.1 °F 90% 30.07 in 0.2 mi Calm Calm - N/A Fog Fog
7:03 AM 55.0 °F - 53.1 °F 93% 30.11 in 0.8 mi Calm Calm - N/A   Mist
7:05 AM 55.0 °F - 53.1 °F 93% 30.11 in 1.2 mi Calm Calm - N/A   Partly Cloudy
7:14 AM 57.0 °F - 54.0 °F 89% 30.11 in 3.0 mi Calm Calm - N/A   Clear
7:53 AM 59.0 °F - 55.0 °F 87% 30.08 in 10.0 mi Calm Calm - N/A   Clear
8:53 AM 64.0 °F - 57.9 °F 80% 30.09 in 10.0 mi Calm Calm - N/A   Clear
9:53 AM 70.0 °F - 57.9 °F 65% 30.10 in 10.0 mi North 4.6 mph - N/A   Clear
10:53 AM 73.9 °F - 51.1 °F 45% 30.10 in 10.0 mi East 8.1 mph - N/A   Clear
11:53 AM 75.9 °F - 54.0 °F 46% 30.10 in 10.0 mi NE 9.2 mph - N/A   Clear
12:53 PM 78.1 °F - 52.0 °F 40% 30.09 in 10.0 mi NE 3.5 mph - N/A   Clear
1:53 PM 79.0 °F - 54.0 °F 42% 30.07 in 10.0 mi North 6.9 mph - N/A   Clear
2:53 PM 80.1 °F 79.9 °F 53.1 °F 39% 30.06 in 10.0 mi Calm Calm - N/A   Clear
3:53 PM 82.0 °F 81.3 °F 54.0 °F 38% 30.05 in 10.0 mi WNW 5.8 mph - N/A   Clear
4:53 PM 81.0 °F 80.4 °F 53.1 °F 38% 30.03 in 10.0 mi Calm Calm - N/A   Clear
5:53 PM 81.0 °F - 52.0 °F 36% 30.02 in 10.0 mi Calm Calm - N/A   Clear
6:53 PM 80.1 °F 80.1 °F 55.0 °F 42% 30.02 in 10.0 mi Calm Calm - N/A   Clear
7:53 PM 73.9 °F - 57.0 °F 55% 30.01 in 10.0 mi NNE 4.6 mph - N/A   Clear
8:53 PM 72.0 °F - 57.9 °F 61% 30.01 in 10.0 mi Calm Calm - N/A   Clear
9:53 PM 66.9 °F - 57.9 °F 73% 30.02 in 10.0 mi Calm Calm - N/A   Clear
10:53 PM 66.0 °F - 59.0 °F 78% 30.02 in 10.0 mi Calm Calm - N/A   Clear
11:53 PM 63.0 °F - 57.0 °F 81% 30.02 in 10.0 mi Calm Calm - N/A   Clear